Location: Bathurst
(33.4193°S, 149.5775°E)
Time: 01:28:59
(UTC+11:00)

Envisat - Visible Passes

Search period start: 25 January 2021 00:00
Search period end: 04 February 2021 00:00
Orbit: 764 x 766 km, 98.1° (Epoch: 23 January)

Date Brightness Start Highest point End Pass type
(mag) Time Alt. Az. Time Alt. Az. Time Alt. Az.
26 Jan 5.0 05:20:36 10° NE 05:25:07 33° ESE 05:29:41 10° S visible
27 Jan 6.1 04:45:59 10° E 04:48:41 15° ESE 04:51:24 10° SSE visible
28 Jan 3.7 05:45:23 10° NNE 05:50:23 60° ESE 05:55:27 10° S visible
29 Jan 5.4 05:09:39 10° NE 05:13:48 26° ESE 05:18:00 10° SSE visible
30 Jan 6.4 04:36:01 10° E 04:37:26 11° ESE 04:38:50 10° SE visible
31 Jan 4.3 05:34:10 10° NE 05:39:01 46° ESE 05:43:55 10° S visible
01 Feb 5.8 04:58:50 10° ENE 05:02:30 20° ESE 05:06:11 10° SSE visible
03 Feb 4.8 05:23:03 10° NE 05:27:40 36° ESE 05:32:20 10° S visible
